[[{"header":{"parameterUnit":"m.s-1","parameterCategory":1,"la1":30.2991,"la2":30.254,"lo1":-89.0895,"lo2":-89.0444,"dy":0.0017,"dx":0.0017,"nx":28,"ny":28,"refTime":"2024-06-10T21:00:00:Z","depth":0,"parameterNumber":2,"parameterNumberName":"U-component_of_WINDS"},"data":[0,0,0,0,0,0,0,0,0,0,0,0,0,0,0,0,0,0,0,0,0,0,0,0,0,0,0,0,0,0,0,0,0,0,0,0,0,0,0,0,0,0,0,0,0,0,0,0,0,0,0,0,0,0,0,0,0,0,-1.792,-1.7919,0,-1.7853,-1.7852,-1.7852,-1.7749,-1.7747,-1.7745,-1.7744,-1.7677,-1.7677,-1.7677,0,0,0,0,0,0,0,0,0,0,0,0,0,-1.7963,-1.7963,-1.792,-1.7919,-1.7918,-1.7853,-1.7852,-1.7851,-1.7749,-1.7747,-1.7745,-1.7743,-1.7677,-1.7677,-1.7677,0,0,0,0,0,0,0,0,0,0,0,0,0,-1.7926,-1.7963,-1.792,-1.786,-1.7853,-1.7853,-1.7852,-1.7851,-1.775,-1.7747,-1.7744,-1.7742,-1.7677,-1.7677,-1.7677,-1.7732,0,0,-1.7677,-1.7677,0,0,0,0,0,0,0,0,-1.7928,-1.7924,-1.7869,-1.7864,-1.7857,-1.7807,-1.7843,-1.7811,-1.7751,-1.7789,-1.7744,-1.7741,-1.7723,-1.7719,-1.7712,-1.7729,-1.7726,-1.7677,-1.7677,-1.7677,-1.7677,0,0,0,0,0,0,0,-1.7931,-1.7926,-1.7894,-1.7869,-1.7861,-1.7837,-1.7829,-1.7837,-1.7772,-1.7786,-1.7778,-1.7772,-1.7719,-1.7713,-1.771,-1.7725,-1.7677,-1.7677,-1.7677,-1.7677,-1.7786,-1.7789,0,0,0,0,0,0,-1.7942,-1.7929,-1.7896,-1.7892,-1.7886,-1.7839,-1.7829,-1.7826,-1.7772,-1.7761,-1.7774,-1.7767,-1.7714,-1.771,-1.7707,-1.7769,-1.7677,-1.7677,-1.7677,-1.7783,-1.7787,-1.779,0,0,0,0,0,0,-1.7943,-1.794,-1.7898,-1.7908,-1.7901,-1.7841,-1.7838,-1.7826,-1.7819,-1.7763,-1.7751,-1.7779,-1.7712,-1.7707,-1.7727,-1.7766,-1.7677,-1.7677,-1.778,-1.7784,-1.7788,-1.7893,0,0,0,0,0,0,-1.7945,-1.7941,-1.796,-1.7909,-1.7901,-1.7918,-1.784,-1.7826,-1.7819,-1.7809,-1.7765,-1.7755,-1.7709,-1.7728,-1.7727,-1.7764,-1.7677,-1.7776,-1.7782,-1.7787,-1.7886,-1.7901,-1.7913,0,0,0,0,0,-1.7947,-1.7992,-1.7961,-1.7958,-1.7923,-1.7921,-1.7916,-1.7862,-1.7823,-1.7842,-1.7807,-1.7756,-1.7762,-1.7731,-1.7729,-1.7766,-1.7773,-1.778,-1.7786,-1.788,-1.7898,-1.7913,0,0,0,0,0,0,-1.8048,-1.7984,-1.7949,-1.7979,-1.7956,-1.7903,-1.7926,-1.7882,-1.787,-1.7862,-1.7796,-1.7787,-1.7816,-1.7793,-1.7759,-1.7818,-1.776,-1.7767,-1.7832,-1.7848,-1.7862,-1.7867,-1.7677,0,0,0,0,0,-1.8073,-1.8076,-1.802,-1.8052,-1.8042,-1.7987,-1.7983,-1.7944,-1.7918,-1.7908,-1.7873,-1.7851,-1.7847,-1.7846,-1.784,-1.7883,-1.7873,-1.7908,-1.7922,-1.7933,-1.794,-1.7963,-1.7979,-1.7812,-1.7812,-1.7811,0,0,-1.8127,-1.8092,-1.8097,-1.8071,-1.8049,-1.8054,-1.7979,-1.7987,-1.7991,-1.7909,-1.7925,-1.79,-1.7871,-1.7903,-1.7915,-1.7885,-1.7984,-1.7942,-1.7951,-1.7951,-1.7972,-1.7988,-1.8002,-1.7816,-1.7815,-1.7815,0,0,-1.8226,-1.82,-1.8224,-1.8204,-1.8171,-1.8134,-1.8141,-1.8095,-1.8075,-1.8091,-1.8031,-1.8035,-1.803,-1.8012,-1.8003,-1.81,-1.8055,-1.81,-1.8171,-1.8195,-1.8208,-1.822,-1.8257,-1.827,-1.8107,-1.8107,-1.8107,0,-1.8297,-1.8301,-1.8243,-1.8255,-1.8247,-1.8174,-1.82,-1.8183,-1.815,-1.8147,-1.8113,-1.8108,-1.8083,-1.8111,-1.8135,-1.8129,-1.8136,-1.8105,-1.8211,-1.8222,-1.8232,-1.8266,-1.828,-1.8113,-1.8112,-1.8112,-1.8111,0,-1.839,-1.8395,-1.8419,-1.839,-1.8384,-1.8403,-1.835,-1.8351,-1.8314,-1.8281,-1.83,-1.8268,-1.8255,-1.8259,-1.8222,-1.8283,-1.8266,-1.8223,-1.8163,-1.8255,-1.8286,-1.8298,-1.8121,-1.8119,-1.8118,-1.8116,0,0,-1.855,-1.849,-1.85,-1.8487,-1.8447,-1.845,-1.8468,-1.8455,-1.8459,-1.844,-1.8454,-1.8454,-1.8414,-1.8404,-1.8364,-1.8386,-1.8468,-1.834,-1.8338,-1.8366,-1.8536,-1.857,-1.8586,-1.8437,-1.844,-1.8441,-1.8539,0,-1.8642,-1.8667,-1.8617,-1.8655,-1.866,-1.8592,-1.8608,-1.8587,-1.8558,-1.8559,-1.8527,-1.8528,-1.8475,-1.8469,-1.8487,-1.8454,-1.8501,-1.8446,-1.8452,-1.8453,-1.8462,-1.8602,-1.8636,-1.873,-1.8551,-1.8553,-1.8554,0,-1.8752,-1.874,-1.8779,-1.8739,-1.874,-1.8754,-1.8741,-1.8742,-1.8717,-1.8695,-1.8685,-1.864,-1.8656,-1.8599,-1.8623,-1.8587,-1.8586,-1.8571,-1.8574,-1.8572,-1.851,-1.8606,-1.8758,-1.8773,-1.8573,-1.8571,-1.857,0,-1.8867,-1.886,-1.8883,-1.8874,-1.8828,-1.884,-1.8822,-1.8794,-1.8791,-1.878,-1.8778,-1.8769,-1.8764,-1.8759,-1.8714,-1.8676,-1.8744,-1.8682,-1.8727,-1.8729,-1.8744,-1.8744,-1.8901,-1.8743,-1.8743,-1.8743,-1.8743,0,-1.8976,-1.9003,-1.8934,-1.8948,-1.8977,-1.8921,-1.8951,-1.8926,-1.8903,-1.8913,-1.8854,-1.8865,-1.8803,-1.8808,-1.8773,-1.8799,-1.8797,-1.8781,-1.8772,-1.8787,-1.8789,-1.8786,-1.8779,-1.8746,-1.8746,-1.8745,-1.8744,0,-1.9109,-1.9063,-1.9084,-1.904,-1.903,-1.9053,-1.9016,-1.9029,-1.8997,-1.901,-1.901,-1.8961,-1.8964,-1.8918,-1.8912,-1.8888,-1.8931,-1.8909,-1.8939,-1.8933,-1.8981,-1.8978,-1.9142,-1.9161,-1.8991,-1.8993,-1.8994,0,-1.9181,-1.92,-1.9159,-1.9161,-1.9146,-1.915,-1.9147,-1.9093,-1.9093,-1.9068,-1.9084,-1.9083,-1.9078,-1.9086,-1.9051,-1.9047,-1.9025,-1.9083,-1.9024,-1.904,-1.9028,-1.9028,-1.9031,-1.9096,-1.9098,-1.91,-1.9101,0,-1.9316,-1.9293,-1.929,-1.9281,-1.9279,-1.9269,-1.9256,-1.9261,-1.9203,-1.9206,-1.9208,-1.9205,-1.92,-1.92,-1.9189,-1.9172,-1.9128,-1.912,-1.9131,-1.9147,-1.9164,-1.9157,-1.8974,-1.9116,-1.9115,-1.9114,-1.9113,-1.9112,-1.9421,-1.9436,-1.941,-1.941,-1.9395,-1.9384,-1.9394,-1.9365,-1.9366,-1.9357,-1.9325,-1.9334,-1.9312,-1.9294,-1.9281,-1.9289,-1.9261,-1.9275,-1.9279,-1.9284,-1.9294,-1.9163,-1.9287,-1.9286,-1.9286,-1.9285,-1.9285,0,-1.9554,-1.9534,-1.9535,-1.9518,-1.952,-1.9478,-1.9461,-1.9465,-1.9474,-1.9457,-1.9454,-1.9459,-1.9459,-1.9425,-1.9422,-1.9435,-1.9415,-1.9436,-1.9435,-1.9432,-1.9318,-1.931,-1.9452,-1.9452,-1.9452,-1.9452,-1.9452,-1.9452,-1.9623,-1.9647,-1.9622,-1.9639,-1.9619,-1.9627,-1.9622,-1.9613,-1.96,-1.9607,-1.9607,-1.9585,-1.9562,-1.9557,-1.9557,-1.9547,-1.955,-1.9578,-1.9562,-1.9456,-1.944,-1.9424,-1.9416,-1.9579,-1.9579,-1.9675,-1.9676,-1.9677]},{"header":{"parameterUnit":"m.s-1","parameterCategory":1,"la1":30.2991,"la2":30.254,"lo1":-89.0895,"lo2":-89.0444,"dy":0.0017,"dx":0.0017,"nx":28,"ny":28,"refTime":"2024-06-10T21:00:00:Z","depth":0,"parameterNumber":3,"parameterNumberName":"V-component_of_WINDS"},"data":[0,0,0,0,0,0,0,0,0,0,0,0,0,0,0,0,0,0,0,0,0,0,0,0,0,0,0,0,0,0,0,0,0,0,0,0,0,0,0,0,0,0,0,0,0,0,0,0,0,0,0,0,0,0,0,0,0,0,2.1427,2.1427,0,2.1429,2.1429,2.1429,2.1433,2.1433,2.1433,2.1433,2.1435,2.1435,2.1435,0,0,0,0,0,0,0,0,0,0,0,0,0,2.1426,2.1426,2.1427,2.1427,2.1427,2.1429,2.1429,2.1429,2.1433,2.1433,2.1433,2.1434,2.1435,2.1435,2.1435,0,0,0,0,0,0,0,0,0,0,0,0,0,2.1427,2.1426,2.1427,2.1429,2.143,2.1429,2.1429,2.1429,2.1433,2.1433,2.1433,2.1434,2.1435,2.1435,2.1435,2.1432,0,0,2.1435,2.1435,0,0,0,0,0,0,0,0,2.1427,2.1427,2.1429,2.1429,2.143,2.1431,2.1429,2.143,2.1433,2.1432,2.1433,2.1434,2.1433,2.1434,2.1434,2.1432,2.1432,2.1435,2.1435,2.1435,2.1435,0,0,0,0,0,0,0,2.1427,2.1427,2.1428,2.1429,2.1429,2.143,2.143,2.1429,2.1432,2.1432,2.1432,2.1432,2.1434,2.1434,2.1434,2.1432,2.1435,2.1435,2.1435,2.1435,2.1427,2.1427,0,0,0,0,0,0,2.1427,2.1427,2.1428,2.1428,2.1429,2.143,2.143,2.143,2.1432,2.1432,2.1432,2.1433,2.1434,2.1434,2.1434,2.143,2.1435,2.1435,2.1434,2.1428,2.1427,2.1427,0,0,0,0,0,0,2.1427,2.1427,2.1428,2.1428,2.1428,2.143,2.143,2.143,2.143,2.1432,2.1433,2.1432,2.1434,2.1434,2.1432,2.143,2.1434,2.1434,2.1428,2.1428,2.1427,2.1423,0,0,0,0,0,0,2.1427,2.1427,2.1426,2.1428,2.1428,2.1426,2.143,2.143,2.143,2.1431,2.1432,2.1432,2.1434,2.1432,2.1432,2.143,2.1434,2.1428,2.1428,2.1427,2.1423,2.1422,2.1422,0,0,0,0,0,2.1427,2.1424,2.1426,2.1426,2.1427,2.1426,2.1426,2.1428,2.143,2.1429,2.143,2.1432,2.143,2.1432,2.1432,2.143,2.1428,2.1428,2.1427,2.1423,2.1422,2.1422,0,0,0,0,0,0,2.1422,2.1425,2.1426,2.1424,2.1425,2.1427,2.1426,2.1427,2.1427,2.1428,2.143,2.143,2.1428,2.1429,2.1431,2.1427,2.143,2.1429,2.1426,2.1426,2.1425,2.1425,2.1434,0,0,0,0,0,2.1421,2.1421,2.1423,2.1421,2.1421,2.1423,2.1423,2.1425,2.1426,2.1426,2.1427,2.1427,2.1427,2.1426,2.1426,2.1423,2.1423,2.1422,2.1421,2.142,2.142,2.1418,2.1417,2.1426,2.1426,2.1426,0,0,2.1419,2.142,2.142,2.142,2.1421,2.142,2.1424,2.1423,2.1422,2.1426,2.1424,2.1425,2.1425,2.1423,2.1422,2.1424,2.1417,2.142,2.142,2.1419,2.1418,2.1417,2.1416,2.1426,2.1426,2.1426,0,0,2.1414,2.1415,2.1413,2.1414,2.1415,2.1416,2.1416,2.1417,2.1418,2.1417,2.1419,2.1418,2.1418,2.1418,2.1418,2.1413,2.1414,2.1412,2.1409,2.1407,2.1406,2.1406,2.1403,2.1402,2.1412,2.1412,2.1412,0,2.141,2.141,2.1412,2.1411,2.1411,2.1414,2.1413,2.1413,2.1414,2.1414,2.1415,2.1414,2.1415,2.1412,2.1411,2.1411,2.141,2.1412,2.1406,2.1405,2.1405,2.1403,2.1402,2.1412,2.1412,2.1412,2.1412,0,2.1405,2.1405,2.1403,2.1404,2.1404,2.1403,2.1405,2.1404,2.1406,2.1407,2.1405,2.1406,2.1406,2.1405,2.1407,2.1403,2.1404,2.1406,2.1408,2.1404,2.1402,2.1401,2.1411,2.1411,2.1411,2.1412,0,0,2.1398,2.14,2.1399,2.1399,2.1401,2.14,2.1399,2.1398,2.1398,2.1398,2.1397,2.1396,2.1398,2.1398,2.1399,2.1398,2.1393,2.14,2.14,2.1398,2.1388,2.1386,2.1385,2.1394,2.1394,2.1394,2.1388,0,2.1393,2.139,2.1393,2.139,2.1389,2.1392,2.1391,2.1391,2.1392,2.1391,2.1393,2.1392,2.1394,2.1394,2.1393,2.1394,2.1391,2.1394,2.1392,2.1392,2.1391,2.1384,2.1382,2.1376,2.1387,2.1387,2.1387,0,2.1387,2.1387,2.1384,2.1385,2.1385,2.1383,2.1383,2.1383,2.1383,2.1384,2.1384,2.1386,2.1384,2.1387,2.1384,2.1387,2.1386,2.1386,2.1386,2.1386,2.1389,2.1383,2.1374,2.1373,2.1386,2.1386,2.1386,0,2.138,2.138,2.1378,2.1378,2.138,2.1379,2.1379,2.138,2.1379,2.1379,2.1379,2.1378,2.1378,2.1377,2.1379,2.1381,2.1376,2.1379,2.1376,2.1376,2.1374,2.1374,2.1365,2.1375,2.1375,2.1375,2.1375,0,2.1374,2.1372,2.1375,2.1374,2.1372,2.1374,2.1372,2.1373,2.1373,2.1372,2.1375,2.1373,2.1376,2.1374,2.1376,2.1373,2.1373,2.1373,2.1373,2.1372,2.1372,2.1372,2.1372,2.1375,2.1375,2.1375,2.1375,0,2.1367,2.1369,2.1367,2.1369,2.1369,2.1367,2.1368,2.1367,2.1368,2.1366,2.1366,2.1368,2.1367,2.1368,2.1367,2.1368,2.1364,2.1365,2.1364,2.1364,2.136,2.136,2.135,2.1349,2.136,2.136,2.1359,0,2.1363,2.1361,2.1363,2.1362,2.1362,2.1361,2.1361,2.1363,2.1363,2.1363,2.1362,2.1361,2.136,2.1357,2.1358,2.1357,2.1358,2.1355,2.1358,2.1357,2.1357,2.1357,2.1357,2.1354,2.1354,2.1353,2.1353,0,2.1355,2.1356,2.1355,2.1355,2.1354,2.1354,2.1354,2.1354,2.1356,2.1355,2.1354,2.1353,2.1352,2.1351,2.135,2.135,2.1352,2.1352,2.1351,2.135,2.1349,2.1349,2.1361,2.1352,2.1353,2.1353,2.1353,2.1353,2.1349,2.1347,2.1348,2.1347,2.1347,2.1347,2.1346,2.1347,2.1346,2.1345,2.1347,2.1345,2.1345,2.1344,2.1344,2.1342,2.1344,2.1343,2.1342,2.1342,2.1341,2.135,2.1342,2.1342,2.1342,2.1342,2.1342,0,2.134,2.1341,2.134,2.134,2.1339,2.1341,2.1341,2.134,2.1339,2.1339,2.1338,2.1336,2.1335,2.1336,2.1335,2.1333,2.1334,2.1333,2.1332,2.1332,2.134,2.1341,2.1332,2.1332,2.1332,2.1332,2.1332,2.1332,2.1336,2.1333,2.1334,2.1332,2.1333,2.1331,2.1331,2.133,2.133,2.1328,2.1327,2.1328,2.1328,2.1327,2.1326,2.1326,2.1325,2.1323,2.1324,2.1331,2.1332,2.1333,2.1333,2.1323,2.1323,2.1316,2.1316,2.1316]}]]